SPACEBEE-73 (48635 NORAD) Tracking and Keplerian Element Data

This shows tracking and keplerian element data for the satellite.

Feedback or suggestion? Click here.




ElementValue
Catalog48635
NameSPACEBEE-73
Epoch Orbit4013
Epoch Day287.88022126
Epoch Year2021
RAAN342.1639
Inclination97.2451
Eccentricity0.0017279
Argument of Perigee42.7946
Mean Anonmoly317.4628
Mean Motion15.15259462
Decay Rate5.19E-05
L11 48635U 21006FB 21287.88022126 .00005190 00000-0 27827-3 0 9998
L22 48635 97.2451 342.1639 0017279 42.7946 317.4628 15.15259462 40131

Live tracking and technical data element details for SPACEBEE-73 (NORAD 48635). SPACEBEE-73 can be tracked NOW for your location showing map with azimuth and elevation plus other details from your city location.

Track the satellite on the map from your city or location and see movement details for azimuth, elevation, latitude, longitude, range, height, and movement on the map or in text.







IsCatalogInMostPopularTable: catalog: 48635, numindb: 36
Update: records affected: 1



GetName: 48635 SPACEBEE-73

Hit Count: updated at: Tue, 19 Oct 2021 08:36:14 GMT